DW9470 Weather Reports


time (UTC)temp
C
wind
direction
speed
KPH
gust
KPH
rain 1hr
cm
rain 24hr
cm
rain mn
cm
humidity
%
barometer
mb
20260906181011 25 37 0.0 1.6 0.00 0.00 0.00 41 1018.3
20260906180511 25 60 1.6 1.6 0.00 0.00 0.00 42 1018.2
20260906180011 25 101 0.0 1.6 0.00 0.00 0.00 44 1018.1
20260906175511 25 54 4.8 1.6 0.00 0.00 0.00 50 1018.0
20260906175011 26 63 4.8 1.6 0.00 0.00 0.00 52 1017.9
20260906174511 26 83 3.2 0.0 0.00 0.00 0.00 56 1017.9
20260906173511 26 167 0.0 1.6 0.00 0.00 0.00 57 1017.6
20260906172512 26 231 1.6 1.6 0.00 0.00 0.00 56 1018.1
20260906172011 26 103 0.0 1.6 0.00 0.00 0.00 55 1018.1
20260906171511 26 65 1.6 1.6 0.00 0.00 0.00 56 1017.9
20260906170512 27 160 0.0 1.6 0.00 0.00 0.00 59 1018.2
20260906170011 27 181 9.7 1.6 0.00 0.00 0.00 58 1018.3
20260906165511 27 184 6.4 1.6 0.00 0.03 0.00 57 1018.4
20260906165011 26 160 4.8 1.6 0.00 0.03 0.00 53 1018.6
20260906164511 26 232 8.0 1.6 0.00 0.03 0.00 55 1018.7
20260906164011 26 180 3.2 1.6 0.00 0.03 0.00 56 1018.6
20260906163511 26 63 3.2 1.6 0.00 0.03 0.00 54 1018.6
20260906162511 26 171 6.4 1.6 0.00 0.03 0.00 54 1018.3
20260906161011 26 171 12.9 1.6 0.00 0.03 0.00 47 1018.0
20260906160011 25 139 0.0 1.6 0.00 0.03 0.00 46 1017.8
20260906155511 25 171 11.3 1.6 0.00 0.03 0.00 44 1017.9
20260906155011 25 207 4.8 1.6 0.00 0.03 0.00 44 1017.8
20260906154511 25 131 0.0 1.6 0.00 0.03 0.00 41 1017.7
20260906154010 25 95 0.0 0.0 0.00 0.03 0.00 42 1017.6
20260906153510 25 146 1.6 1.6 0.00 0.03 0.00 39 1017.6
20260906153010 24 118 0.0 1.6 0.00 0.03 0.00 37 1017.7
20260906152010 24 158 11.3 1.6 0.00 0.03 0.00 34 1017.8
20260906151510 24 250 1.6 1.6 0.00 0.03 0.00 35 1018.0
20260906151010 24 83 3.2 1.6 0.00 0.03 0.00 35 1017.1
20260906150511 24 95 0.0 1.6 0.00 0.03 0.00 34 1017.1
20260906150010 23 169 4.8 1.6 0.00 0.03 0.00 32 1017.1
20260906145510 23 194 16.1 1.6 0.00 0.03 0.00 31 1017.1
20260906145010 23 207 3.2 1.6 0.00 0.03 0.00 32 1017.1
20260906144510 23 144 0.0 1.6 0.00 0.03 0.00 30 1017.2
20260906144011 23 75 4.8 1.6 0.00 0.03 0.00 31 1017.2
20260906143510 23 203 3.2 1.6 0.00 0.03 0.00 29 1017.3
20260906143010 23 156 0.0 1.6 0.00 0.03 0.00 30 1017.4
20260906142510 23 210 3.2 1.6 0.00 0.03 0.00 29 1017.4
20260906142010 23 171 0.0 1.6 0.00 0.03 0.00 28 1017.4
20260906141510 23 221 6.4 1.6 0.00 0.03 0.00 30 1017.4
20260906141010 23 104 1.6 1.6 0.00 0.03 0.00 28 1017.4
20260906140510 23 224 8.0 1.6 0.00 0.03 0.00 28 1017.4
20260906140010 23 176 1.6 1.6 0.00 0.03 0.00 29 1017.4
20260906135510 23 166 0.0 1.6 0.00 0.03 0.00 28 1017.4
20260906134510 23 111 3.2 0.0 0.00 0.03 0.00 28 1017.4
20260906134010 22 248 0.0 0.0 0.00 0.03 0.00 28 1017.5
20260906133510 22 127 0.0 0.0 0.00 0.03 0.00 27 1017.4
20260906132510 22 84 0.0 0.0 0.00 0.03 0.00 27 1017.4
20260906132011 22 191 0.0 0.0 0.00 0.03 0.00 28 1017.4
20260906131010 22 161 0.0 0.0 0.00 0.03 0.00 28 1017.4
20260906130510 22 134 0.0 0.0 0.00 0.03 0.00 28 1017.4
20260906125010 21 152 0.0 0.0 0.00 0.03 0.00 28 1017.5
20260906124510 21 165 0.0 0.0 0.00 0.03 0.00 29 1017.5
20260906124010 21 128 0.0 1.6 0.00 0.03 0.00 29 1017.4
20260906123511 21 150 0.0 1.6 0.00 0.03 0.00 29 1017.2
20260906122510 21 84 0.0 0.0 0.00 0.03 0.00 29 1017.1
20260906122010 21 130 0.0 0.0 0.00 0.03 0.00 29 1017.0
20260906121010 21 148 0.0 1.6 0.00 0.03 0.00 29 1017.0
20260906120510 21 178 0.0 1.6 0.00 0.03 0.00 29 1016.9
20260906120012 21 165 4.8 0.0 0.00 0.03 0.00 29 1016.8
20260906115511 21 158 1.6 0.0 0.00 0.03 0.00 29 1016.7
20260906115011 21 177 3.2 0.0 0.00 0.03 0.00 29 1016.6
20260906114010 21 178 6.4 0.0 0.00 0.03 0.00 28 1016.6
20260906113510 21 200 0.0 0.0 0.00 0.03 0.00 28 1016.6
20260906112510 21 173 1.6 0.0 0.00 0.03 0.00 28 1016.6
20260906112010 21 174 0.0 0.0 0.00 0.03 0.00 28 1016.5
20260906111510 21 94 0.0 0.0 0.00 0.03 0.00 28 1016.5
20260906111011 21 70 3.2 0.0 0.00 0.03 0.00 28 1016.5
20260906110511 21 118 0.0 0.0 0.00 0.03 0.00 28 1016.4
20260906110011 21 54 0.0 1.6 0.00 0.03 0.00 28 1016.5
20260906105510 21 64 0.0 1.6 0.00 0.03 0.00 28 1016.5
20260906105010 21 92 0.0 1.6 0.00 0.03 0.00 28 1016.5
20260906104011 21 114 0.0 0.0 0.00 0.03 0.00 28 1016.6
20260906103510 21 341 0.0 0.0 0.00 0.03 0.00 28 1016.7
20260906103011 21 65 0.0 0.0 0.00 0.03 0.00 28 1016.7
20260906102511 21 108 1.6 0.0 0.00 0.03 0.00 28 1016.8
20260906102010 21 86 0.0 0.0 0.00 0.03 0.00 28 1016.8
20260906101511 21 168 0.0 0.0 0.00 0.03 0.00 29 1016.8
20260906101010 21 106 0.0 0.0 0.00 0.03 0.00 29 1016.9
20260906100511 21 96 0.0 0.0 0.00 0.03 0.00 29 1016.8
20260906100011 21 124 0.0 0.0 0.00 0.03 0.00 29 1016.7
20260906095511 21 222 0.0 0.0 0.00 0.03 0.00 29 1016.7
20260906095011 21 110 1.6 0.0 0.00 0.03 0.00 29 1016.6
20260906094011 21 184 0.0 0.0 0.00 0.03 0.00 29 1016.5
20260906093511 21 109 0.0 0.0 0.00 0.03 0.00 29 1016.5
20260906092011 21 86 4.8 0.0 0.00 0.03 0.00 29 1016.4
20260906091511 21 95 0.0 0.0 0.00 0.03 0.00 29 1016.5
20260906091011 21 71 0.0 0.0 0.00 0.03 0.00 29 1016.4
20260906090510 21 56 3.2 0.0 0.00 0.03 0.00 29 1016.4
20260906085511 21 101 0.0 0.0 0.00 0.03 0.00 28 1016.1
20260906085011 21 94 3.2 0.0 0.00 0.03 0.00 28 1016.1
20260906084511 22 138 0.0 0.0 0.00 0.03 0.00 28 1016.1
20260906084011 22 57 0.0 0.0 0.00 0.03 0.00 28 1016.1
20260906083511 22 75 3.2 0.0 0.00 0.03 0.00 28 1016.1
20260906083011 22 53 0.0 0.0 0.00 0.03 0.00 28 1016.2
20260906082511 22 111 3.2 0.0 0.00 0.03 0.00 28 1016.1
20260906082011 22 121 0.0 0.0 0.00 0.03 0.00 28 1016.1
20260906081511 22 53 0.0 0.0 0.00 0.03 0.00 28 1016.1
20260906081011 22 113 0.0 0.0 0.00 0.03 0.00 28 1016.1
20260906080511 22 151 0.0 0.0 0.00 0.03 0.00 28 1016.1
20260906075511 22 259 0.0 0.0 0.00 0.03 0.00 28 1016.1
20260906075011 22 86 0.0 0.0 0.00 0.03 0.00 28 1016.0
20260906074511 22 64 4.8 0.0 0.00 0.03 0.00 28 1016.1
20260906074012 22 81 0.0 0.0 0.00 0.03 0.00 28 1016.0
20260906073011 22 149 0.0 0.0 0.00 0.03 0.00 28 1016.1
20260906072011 22 84 0.0 0.0 0.00 0.03 0.00 28 1016.0
20260906071512 22 160 0.0 0.0 0.00 0.03 0.00 28 1016.0
20260906071011 22 63 0.0 0.0 0.00 0.03 0.00 28 1016.0
20260906070511 22 68 3.2 1.6 0.00 0.03 0.00 28 1016.0
20260906070011 22 113 0.0 0.0 0.00 0.03 0.00 28 1016.0
20260906065511 22 58 0.0 0.0 0.00 0.03 0.00 28 1016.1
20260906064511 22 113 0.0 1.6 0.00 0.03 0.00 28 1017.2
20260906064010 22 72 0.0 1.6 0.00 0.03 0.00 28 1017.2
20260906063510 22 166 0.0 0.0 0.00 0.03 0.00 28 1017.2
20260906063010 22 93 0.0 1.6 0.00 0.03 0.00 28 1017.2
20260906062510 22 116 0.0 1.6 0.00 0.03 0.00 28 1017.2
20260906062011 22 71 3.2 1.6 0.00 0.03 0.00 28 1017.2
20260906061510 22 79 6.4 1.6 0.00 0.03 0.00 28 1017.2
20260906061010 22 94 0.0 1.6 0.00 0.03 0.00 28 1017.1
20260906060510 22 95 0.0 1.6 0.00 0.03 0.00 28 1017.1
20260906060010 22 67 0.0 0.0 0.00 0.03 0.00 28 1017.1
20260906055510 23 57 0.0 0.0 0.00 0.03 0.00 28 1017.2
20260906055010 23 101 0.0 0.0 0.00 0.03 0.00 28 1017.2
20260906054510 23 81 9.7 1.6 0.00 0.03 0.00 28 1017.2
20260906054010 23 82 0.0 0.0 0.00 0.03 0.00 28 1017.2
20260906053510 23 63 0.0 0.0 0.00 0.03 0.00 28 1017.2
20260906053010 23 82 0.0 0.0 0.00 0.03 0.00 28 1017.0
20260906052510 23 67 0.0 0.0 0.00 0.03 0.00 28 1017.0
20260906052010 23 170 0.0 1.6 0.00 0.03 0.00 28 1017.1
20260906051510 23 56 0.0 0.0 0.00 0.03 0.00 28 1017.1
20260906051010 23 132 0.0 0.0 0.00 0.03 0.00 28 1017.2
20260906050510 23 91 0.0 0.0 0.00 0.03 0.00 28 1017.1
20260906050010 23 91 0.0 0.0 0.00 0.03 0.00 28 1017.2
20260906045510 23 77 0.0 1.6 0.00 0.03 0.03 28 1017.1
20260906045010 23 64 0.0 1.6 0.00 0.03 0.03 28 1017.1
20260906044512 23 128 0.0 0.0 0.00 0.03 0.03 28 1017.1
20260906044010 23 169 1.6 1.6 0.00 0.03 0.03 27 1017.1
20260906043510 23 105 0.0 1.6 0.00 0.03 0.03 27 1017.1
20260906042510 23 44 3.2 1.6 0.00 0.03 0.03 27 1017.2
20260906042010 23 318 0.0 1.6 0.00 0.03 0.03 27 1017.2
20260906041510 23 54 0.0 1.6 0.00 0.03 0.03 27 1017.3
20260906041010 23 48 3.2 1.6 0.00 0.03 0.03 27 1017.2
20260906040510 23 71 9.7 1.6 0.00 0.03 0.03 27 1017.1
20260906035511 23 68 4.8 0.0 0.00 0.03 0.03 27 1017.0
20260906035010 24 50 0.0 1.6 0.00 0.03 0.03 27 1016.9
20260906033010 24 71 6.4 1.6 0.00 0.03 0.03 27 1016.9
20260906032510 24 82 0.0 1.6 0.00 0.03 0.03 27 1016.8
20260906031510 25 105 1.6 0.0 0.00 0.03 0.03 27 1017.0
20260906031010 25 100 0.0 0.0 0.00 0.03 0.03 27 1016.9
20260906030510 25 51 0.0 0.0 0.00 0.03 0.03 27 1016.9
20260906030011 25 54 0.0 0.0 0.00 0.03 0.03 27 1016.9
20260906025510 25 68 0.0 0.0 0.00 0.03 0.03 28 1016.9
20260906025010 25 64 0.0 0.0 0.00 0.03 0.03 28 1016.9
20260906024011 25 90 0.0 0.0 0.00 0.03 0.03 29 1016.8
20260906023510 25 56 0.0 0.0 0.00 0.03 0.03 30 1016.8
20260906023011 25 85 0.0 0.0 0.00 0.03 0.03 31 1016.7
20260906022511 25 72 3.2 0.0 0.00 0.03 0.03 31 1016.6
20260906022013 25 74 0.0 0.0 0.00 0.03 0.03 32 1016.4
20260906021510 25 60 4.8 0.0 0.00 0.03 0.03 34 1016.4
20260906021011 26 67 1.6 0.0 0.00 0.03 0.03 35 1016.2
20260906020511 26 70 1.6 0.0 0.00 0.03 0.03 35 1016.1
20260906020011 26 67 0.0 0.0 0.00 0.03 0.03 36 1016.0
20260906015511 26 92 0.0 0.0 0.00 0.03 0.03 37 1016.1
20260906014511 26 104 0.0 0.0 0.00 0.03 0.03 39 1015.9
20260906014011 26 77 0.0 0.0 0.00 0.03 0.03 41 1015.9
20260906013510 26 86 3.2 0.0 0.00 0.03 0.03 43 1015.8
20260906013011 26 57 0.0 0.0 0.00 0.03 0.03 44 1015.8
20260906012510 26 114 4.8 0.0 0.00 0.03 0.03 44 1015.7
20260906012011 26 117 1.6 0.0 0.00 0.03 0.03 43 1015.6
20260906011511 26 51 0.0 1.6 0.00 0.03 0.03 43 1015.5
20260906011012 27 51 0.0 1.6 0.00 0.03 0.03 44 1015.4
20260906010511 27 93 3.2 1.6 0.00 0.03 0.03 44 1015.4
20260906005511 27 60 1.6 0.0 0.00 0.03 0.03 48 1015.4
20260906005012 27 82 0.0 0.0 0.00 0.03 0.03 50 1015.4
20260906004511 27 60 0.0 0.0 0.00 0.03 0.03 52 1015.5
20260906004011 27 51 0.0 0.0 0.00 0.03 0.03 53 1015.4
20260906003511 27 94 1.6 0.0 0.00 0.03 0.03 55 1015.3
20260906003011 28 101 0.0 0.0 0.00 0.03 0.03 57 1015.3
20260906002511 28 91 0.0 0.0 0.00 0.03 0.03 58 1015.3
20260906002011 28 77 0.0 0.0 0.00 0.03 0.03 61 1015.2
20260906001511 28 85 0.0 0.0 0.00 0.03 0.03 62 1015.2
20260906001011 28 105 0.0 0.0 0.00 0.03 0.03 63 1015.2
20260906000511 28 72 6.4 0.0 0.00 0.03 0.03 65 1015.2
20260906000011 29 152 0.0 0.0 0.00 0.03 0.03 66 1015.2
20260905235511 29 75 0.0 0.0 0.00 0.03 0.03 66 1015.3
20260905235011 29 197 0.0 0.0 0.00 0.03 0.03 67 1015.3
20260905234511 29 40 0.0 0.0 0.00 0.03 0.03 67 1015.2
20260905233512 29 103 0.0 0.0 0.00 0.03 0.03 67 1015.2
20260905232511 28 173 0.0 0.0 0.00 0.03 0.03 67 1015.2
20260905232011 28 129 0.0 0.0 0.00 0.03 0.03 68 1015.1
20260905231511 28 37 3.2 0.0 0.00 0.03 0.03 68 1015.1
20260905231011 28 86 0.0 1.6 0.00 0.03 0.03 68 1015.1
20260905230511 28 200 0.0 1.6 0.00 0.03 0.03 68 1015.1
20260905230011 29 116 3.2 0.0 0.00 0.03 0.03 68 1015.0
20260905225511 29 77 0.0 1.6 0.00 0.03 0.03 68 1015.0
20260905225011 29 122 0.0 1.6 0.00 0.03 0.03 68 1015.0
20260905224511 29 49 3.2 1.6 0.00 0.03 0.03 68 1015.1
20260905223511 29 31 0.0 1.6 0.00 0.03 0.03 68 1015.1
20260905223011 29 50 0.0 1.6 0.00 0.03 0.03 68 1015.0
20260905222511 29 84 11.3 1.6 0.00 0.03 0.03 67 1015.0
20260905222012 29 57 4.8 1.6 0.00 0.03 0.03 68 1015.0
20260905221511 28 44 1.6 0.0 0.00 0.03 0.03 68 1015.0
20260905221011 28 115 0.0 1.6 0.00 0.03 0.03 68 1014.8
20260905220511 28 79 8.0 1.6 0.00 0.03 0.03 68 1014.7
20260905220011 28 101 3.2 1.6 0.00 0.03 0.03 68 1014.8
20260905215511 28 76 4.8 1.6 0.00 0.03 0.03 68 1014.9
20260905215011 28 181 0.0 1.6 0.00 0.03 0.03 68 1014.9
20260905214511 28 101 6.4 1.6 0.00 0.03 0.03 68 1014.9
20260905214010 28 76 3.2 1.6 0.00 0.03 0.03 68 1014.9
20260905213510 28 129 1.6 1.6 0.00 0.03 0.03 68 1014.8
20260905213010 28 146 0.0 1.6 0.00 0.03 0.03 68 1014.8
20260905212510 28 82 0.0 1.6 0.00 0.03 0.03 67 1014.7
20260905212010 28 78 0.0 1.6 0.00 0.03 0.03 66 1014.7
20260905211010 28 94 1.6 0.0 0.00 0.03 0.03 66 1015.0
20260905210510 28 200 1.6 1.6 0.00 0.03 0.03 67 1014.9
20260905210010 28 101 6.4 1.6 0.00 0.03 0.03 67 1014.9
20260905205010 28 99 1.6 1.6 0.00 0.03 0.03 67 1014.9
20260905204510 28 68 4.8 1.6 0.00 0.03 0.03 67 1014.9
20260905204010 27 108 0.0 1.6 0.00 0.03 0.03 67 1015.0
20260905203010 27 60 3.2 1.6 0.00 0.03 0.03 68 1015.0
20260905202510 27 246 0.0 1.6 0.00 0.03 0.03 68 1014.9
20260905202010 27 46 12.9 1.6 0.00 0.03 0.03 68 1014.8
20260905201510 27 78 3.2 1.6 0.00 0.03 0.03 68 1014.9
20260905201011 27 79 3.2 1.6 0.00 0.03 0.03 68 1015.0
20260905200510 27 122 4.8 1.6 0.00 0.03 0.03 68 1015.2
20260905200010 27 61 0.0 0.0 0.00 0.03 0.03 69 1015.1
20260905195010 27 129 4.8 1.6 0.00 0.03 0.03 68 1015.2
20260905194510 27 117 0.0 1.6 0.00 0.03 0.03 68 1015.5
20260905193510 27 243 1.6 1.6 0.00 0.03 0.03 68 1015.7
20260905193010 27 221 1.6 1.6 0.00 0.03 0.03 68 1015.7
20260905191510 26 232 3.2 0.0 0.00 0.03 0.03 69 1016.1
20260905191011 26 214 4.8 1.6 0.00 0.03 0.03 68 1016.1
20260905190010 26 186 6.4 1.6 0.00 0.03 0.03 68 1016.0
20260905185510 25 226 8.0 1.6 0.00 0.03 0.03 68 1016.1
20260905185010 25 163 9.7 1.6 0.00 0.03 0.03 67 1016.0
20260905184510 25 197 11.3 1.6 0.00 0.03 0.03 68 1015.9
20260905183510 25 146 4.8 1.6 0.00 0.03 0.03 68 1015.8
20260905183011 25 171 4.8 1.6 0.00 0.03 0.03 67 1015.8
20260905182510 25 145 1.6 1.6 0.00 0.03 0.03 67 1015.8